FW9423 Weather Reports


Display with metric or nautical units.
time (UTC)temp
F
wind
direction
speed
MPH
gust
MPH
rain 1hr
in
rain 24hr
in
rain mn
in
humidity
%
barometer
mb
20260506123543 64 360 6.0 13.0 0.00 0.00 0.00 64 1029.9
20260506123050 64 360 7.0 14.0 0.00 0.00 0.00 64 1029.8
20260506122543 64 360 10.0 15.0 0.00 0.00 0.00 63 1029.8
20260506122043 64 360 8.0 15.0 0.00 0.00 0.00 62 1029.9
20260506121550 65 360 9.0 15.0 0.00 0.00 0.00 60 1029.8
20260506121043 65 360 6.0 11.0 0.00 0.00 0.00 55 1029.8
20260506120544 65 360 4.0 8.0 0.00 0.00 0.00 49 1029.7
20260506120055 65 360 3.0 6.0 0.00 0.00 0.00 49 1029.6
20260506115542 65 360 3.0 6.0 0.00 0.00 0.00 49 1029.5
20260506115041 65 360 3.0 6.0 0.00 0.00 0.00 49 1029.6
20260506114549 65 360 3.0 6.0 0.00 0.00 0.00 48 1029.5
20260506114041 65 360 3.0 8.0 0.00 0.00 0.00 48 1029.5
20260506113539 65 360 4.0 11.0 0.00 0.00 0.00 48 1029.5
20260506113049 65 360 5.0 13.0 0.00 0.00 0.00 48 1029.4
20260506112540 65 360 3.0 13.0 0.00 0.00 0.00 48 1029.4
20260506112326 66 360 6.0 13.0 0.00 0.00 0.00 48 1029.4
20260506111551 66 360 6.0 12.0 0.00 0.00 0.00 48 1029.4
20260506111046 65 360 6.0 12.0 0.00 0.00 0.00 48 1029.4
20260506110540 65 360 5.0 11.0 0.00 0.00 0.00 49 1029.3
20260506110054 66 360 5.0 11.0 0.00 0.00 0.00 49 1029.3
20260506105543 65 360 5.0 13.0 0.00 0.00 0.00 50 1029.3
20260506105041 65 360 6.0 13.0 0.00 0.00 0.00 51 1029.3
20260506104610 65 360 7.0 13.0 0.00 0.00 0.00 52 1029.3
20260506104310 65 360 5.0 12.0 0.00 0.00 0.00 53 1029.3
20260506103830 65 360 5.0 10.0 0.00 0.00 0.00 53 1029.2
20260506103050 65 360 4.0 10.0 0.00 0.00 0.00 54 1029.2
20260506102544 65 360 4.0 9.0 0.00 0.00 0.00 55 1029.2
20260506102043 65 360 4.0 9.0 0.00 0.00 0.00 55 1029.2
20260506101550 65 360 4.0 9.0 0.00 0.00 0.00 55 1029.1
20260506101042 65 360 4.0 9.0 0.00 0.00 0.00 55 1029.1
20260506100541 65 360 5.0 11.0 0.00 0.00 0.00 55 1029.0
20260506100046 65 360 7.0 11.0 0.00 0.00 0.00 55 1029.0
20260506095545 65 360 6.0 11.0 0.00 0.00 0.00 56 1029.0
20260506095040 65 360 5.0 12.0 0.00 0.00 0.00 56 1028.9
20260506094614 65 360 7.0 12.0 0.00 0.00 0.00 57 1028.8
20260506094042 65 360 6.0 13.0 0.00 0.00 0.00 57 1028.7
20260506093543 65 360 6.0 13.0 0.00 0.00 0.00 58 1028.7
20260506093056 65 360 8.0 13.0 0.00 0.00 0.00 58 1028.7
20260506092543 65 360 6.0 13.0 0.00 0.00 0.00 59 1028.6
20260506092043 65 360 5.0 13.0 0.00 0.00 0.00 58 1028.4
20260506091627 65 360 8.0 15.0 0.00 0.00 0.00 58 1028.4
20260506091042 65 360 8.0 15.0 0.00 0.00 0.00 57 1028.3
20260506090541 66 360 9.0 14.0 0.00 0.00 0.00 56 1028.3
20260506090055 66 360 7.0 14.0 0.00 0.00 0.00 55 1028.2
20260506085541 66 360 7.0 14.0 0.00 0.00 0.00 55 1028.1
20260506085045 66 360 9.0 14.0 0.00 0.00 0.00 54 1028.0
20260506084551 66 360 6.0 14.0 0.00 0.00 0.00 55 1027.9
20260506084042 66 360 7.0 14.0 0.00 0.00 0.00 54 1027.9
20260506083543 66 360 7.0 13.0 0.00 0.00 0.00 54 1027.8
20260506083056 67 360 7.0 12.0 0.00 0.00 0.00 53 1027.8
20260506082544 67 360 6.0 12.0 0.00 0.00 0.00 53 1027.7
20260506082041 67 360 7.0 12.0 0.00 0.00 0.00 52 1027.7
20260506081600 67 360 5.0 12.0 0.00 0.00 0.00 52 1027.7
20260506081043 67 360 6.0 13.0 0.00 0.00 0.00 52 1027.7
20260506080540 67 360 8.0 13.0 0.00 0.00 0.00 52 1027.6
20260506080106 67 360 7.0 13.0 0.00 0.00 0.00 52 1027.6
20260506073050 68 360 7.0 13.0 0.00 0.00 0.00 49 1027.2
20260506072542 68 360 7.0 13.0 0.00 0.00 0.00 49 1027.1
20260506072043 68 360 6.0 11.0 0.00 0.00 0.00 49 1027.0
20260506071610 68 360 6.0 12.0 0.00 0.00 0.00 50 1027.1
20260506071041 68 360 7.0 12.0 0.00 0.00 0.00 50 1027.0
20260506070922 69 360 7.0 12.0 0.00 0.00 0.00 48 1027.0
20260506062044 68 360 8.0 14.0 0.00 0.00 0.00 48 1027.0
20260506061551 69 360 7.0 14.0 0.00 0.00 0.00 47 1026.9
20260506061042 70 360 4.0 13.0 0.00 0.00 0.00 46 1026.9
20260506060545 70 360 6.0 13.0 0.00 0.00 0.00 46 1026.8
20260506051042 68 360 4.0 11.0 0.00 0.00 0.00 50 1027.1
20260506050542 68 360 7.0 13.0 0.00 0.00 0.00 50 1027.2
20260506045043 69 360 5.0 12.0 0.00 0.00 0.00 46 1027.2
20260506044605 69 360 5.0 12.0 0.00 0.00 0.00 47 1027.2
20260506044047 69 360 6.0 12.0 0.00 0.00 0.00 46 1027.1
20260506043543 68 360 6.0 11.0 0.00 0.00 0.00 47 1027.2
20260506043057 68 360 4.0 12.0 0.00 0.00 0.00 48 1027.3
20260506042543 68 360 6.0 12.0 0.00 0.00 0.00 48 1027.3
20260506042043 68 360 4.0 11.0 0.00 0.00 0.00 50 1027.3
20260506041554 68 360 5.0 11.0 0.00 0.00 0.00 49 1027.5
20260506041042 68 360 5.0 11.0 0.00 0.00 0.00 49 1027.5
20260506040543 69 360 5.0 10.0 0.00 0.00 0.00 48 1027.6
20260506040056 70 114 5.0 10.0 0.00 0.00 0.00 46 1027.6
20260506035543 70 360 3.0 8.0 0.00 0.00 0.00 49 1027.6
20260506035043 68 360 4.0 10.0 0.00 0.00 0.00 51 1027.7
20260506034609 68 360 6.0 13.0 0.00 0.00 0.00 50 1027.8
20260506034042 68 360 5.0 13.0 0.00 0.00 0.00 51 1027.7
20260506033542 68 360 4.0 10.0 0.00 0.00 0.00 51 1027.8
20260506033058 68 360 3.0 10.0 0.00 0.00 0.00 52 1027.9
20260506032543 67 360 5.0 10.0 0.00 0.00 0.00 53 1028.0
20260506032043 66 360 4.0 10.0 0.00 0.00 0.00 54 1028.0
20260506031556 67 360 5.0 11.0 0.00 0.00 0.00 54 1028.3
20260506031046 66 360 4.0 11.0 0.00 0.00 0.00 54 1028.2
20260506030541 67 360 5.0 11.0 0.00 0.00 0.00 54 1028.3
20260506030049 66 360 6.0 11.0 0.00 0.00 0.00 54 1028.5
20260506025542 66 360 4.0 12.0 0.00 0.00 0.00 55 1028.6
20260506025043 66 360 4.0 13.0 0.00 0.00 0.00 55 1028.6
20260506024555 66 360 8.0 13.0 0.00 0.00 0.00 54 1028.7
20260506024045 66 360 6.0 12.0 0.00 0.00 0.00 54 1028.8
20260506023542 66 360 6.0 12.0 0.00 0.00 0.00 55 1028.9
20260506023055 67 360 7.0 13.0 0.00 0.00 0.00 55 1028.9
20260506022544 66 360 7.0 14.0 0.00 0.00 0.00 57 1028.9
20260506022040 66 360 6.0 14.0 0.00 0.00 0.00 57 1029.0
20260506021556 65 360 5.0 11.0 0.00 0.00 0.00 58 1028.9
20260506021040 65 360 4.0 13.0 0.00 0.00 0.00 59 1029.0
20260506020542 65 360 7.0 13.0 0.00 0.00 0.00 59 1029.2
20260506020051 65 360 6.0 13.0 0.00 0.00 0.00 58 1029.1
20260506015543 66 360 6.0 12.0 0.00 0.00 0.00 57 1029.2
20260506015043 66 360 7.0 12.0 0.00 0.00 0.00 58 1029.2
20260506014550 66 360 6.0 12.0 0.00 0.00 0.00 58 1029.2
20260506014046 66 360 7.0 12.0 0.00 0.00 0.00 58 1029.3
20260506013542 66 360 6.0 12.0 0.00 0.00 0.00 60 1029.2
20260506013046 66 360 4.0 11.0 0.00 0.00 0.00 61 1029.3
20260506012545 65 360 5.0 12.0 0.00 0.00 0.00 62 1029.4
20260506012043 64 360 6.0 12.0 0.00 0.00 0.00 62 1029.3
20260506011553 64 360 8.0 12.0 0.00 0.00 0.00 63 1029.4
20260506011043 64 360 7.0 11.0 0.00 0.00 0.00 64 1029.3
20260506010543 65 360 5.0 11.0 0.00 0.00 0.00 63 1029.5
20260506010056 65 360 5.0 12.0 0.00 0.00 0.00 65 1029.4
20260506005543 63 360 5.0 12.0 0.00 0.00 0.00 67 1029.3
20260506005040 63 360 5.0 12.0 0.00 0.00 0.00 67 1029.5
20260506004547 63 360 7.0 12.0 0.00 0.00 0.00 67 1029.3
20260506004040 63 360 8.0 13.0 0.00 0.00 0.00 68 1029.4
20260506003540 63 360 7.0 13.0 0.00 0.00 0.00 68 1029.4
20260506003046 62 360 5.0 12.0 0.00 0.00 0.00 69 1029.4
20260506002539 62 360 7.0 13.0 0.00 0.00 0.00 69 1029.4
20260506002040 62 360 6.0 13.0 0.00 0.00 0.00 70 1029.3
20260506001555 62 360 6.0 13.0 0.00 0.00 0.00 70 1029.1
20260506001043 62 360 5.0 12.0 0.00 0.00 0.00 70 1029.1
20260506000543 62 360 5.0 12.0 0.00 0.00 0.00 71 1029.1
20260506000049 61 360 6.0 13.0 0.00 0.00 0.00 72 1029.1
20260505235543 61 360 6.0 13.0 0.00 0.00 0.00 72 1029.0
20260505235043 60 360 7.0 13.0 0.00 0.00 0.00 73 1029.0
20260505234607 60 360 6.0 11.0 0.00 0.00 0.00 73 1028.9
20260505234045 60 360 7.0 11.0 0.00 0.00 0.00 73 1028.9
20260505233540 60 360 7.0 10.0 0.00 0.00 0.00 72 1028.8
20260505233049 60 360 5.0 10.0 0.00 0.00 0.00 72 1028.8
20260505232540 60 360 6.0 10.0 0.00 0.00 0.00 72 1028.8
20260505232043 60 360 5.0 10.0 0.00 0.00 0.00 72 1028.7
20260505231547 60 360 6.0 9.0 0.00 0.00 0.00 72 1028.6
20260505231047 60 360 4.0 9.0 0.00 0.00 0.00 72 1028.6
20260505230543 60 360 5.0 9.0 0.00 0.00 0.00 72 1028.4
20260505230052 60 360 4.0 9.0 0.00 0.00 0.00 72 1028.4
20260505225543 60 360 4.0 8.0 0.00 0.00 0.00 72 1028.1
20260505225043 60 360 4.0 8.0 0.00 0.00 0.00 72 1028.2
20260505224549 60 360 4.0 8.0 0.00 0.00 0.00 72 1028.1
20260505224042 60 360 4.0 8.0 0.00 0.00 0.00 72 1028.1
20260505223544 59 360 3.0 8.0 0.00 0.00 0.00 73 1028.0
20260505223104 59 360 2.0 5.0 0.00 0.00 0.00 73 1028.0
20260505222542 59 360 3.0 6.0 0.00 0.00 0.00 73 1027.9
20260505222043 59 360 3.0 6.0 0.00 0.00 0.00 73 1027.8
20260505221550 59 360 3.0 6.0 0.00 0.00 0.00 73 1027.8
20260505221042 59 360 2.0 6.0 0.00 0.00 0.00 73 1027.8
20260505220543 59 360 3.0 6.0 0.00 0.00 0.00 73 1027.8
20260505220055 59 360 2.0 6.0 0.00 0.00 0.00 72 1027.6
20260505215543 59 360 3.0 6.0 0.00 0.00 0.00 72 1027.6
20260505215043 59 360 3.0 6.0 0.00 0.00 0.00 72 1027.6
20260505214557 60 360 3.0 6.0 0.00 0.00 0.00 72 1027.5
20260505214043 60 360 2.0 5.0 0.00 0.00 0.00 72 1027.5
20260505213540 60 360 3.0 6.0 0.00 0.00 0.00 72 1027.4
20260505213054 60 360 2.0 6.0 0.00 0.00 0.00 72 1027.3
20260505212542 60 360 3.0 6.0 0.00 0.00 0.00 72 1027.3
20260505212043 60 360 2.0 5.0 0.00 0.00 0.00 71 1027.1
20260505211605 60 360 2.0 5.0 0.00 0.00 0.00 71 1027.1
20260505211041 60 360 2.0 6.0 0.00 0.00 0.00 71 1027.1
20260505210543 60 360 3.0 6.0 0.00 0.00 0.00 71 1027.1
20260505210054 59 360 2.0 6.0 0.00 0.00 0.00 71 1027.1
20260505205543 59 360 3.0 8.0 0.00 0.00 0.00 71 1027.1
20260505205045 59 360 3.0 8.0 0.00 0.00 0.00 71 1027.0
20260505204552 59 360 3.0 4.0 0.00 0.00 0.00 71 1026.9
20260505204043 59 360 2.0 5.0 0.00 0.00 0.00 71 1026.9
20260505203543 59 360 2.0 5.0 0.00 0.00 0.00 70 1026.9
20260505203113 59 360 3.0 5.0 0.00 0.00 0.00 70 1026.9
20260505202542 58 360 2.0 5.0 0.00 0.00 0.00 70 1026.9
20260505202043 58 360 2.0 5.0 0.00 0.00 0.00 69 1026.9
20260505201555 58 360 2.0 4.0 0.00 0.00 0.00 68 1026.8
20260505201043 58 360 1.0 5.0 0.00 0.00 0.00 68 1026.7
20260505200543 59 360 1.0 5.0 0.00 0.00 0.00 67 1026.7
20260505200054 59 360 1.0 5.0 0.00 0.00 0.00 67 1026.7
20260505195540 59 360 2.0 5.0 0.00 0.00 0.00 67 1026.7
20260505195039 59 360 2.0 5.0 0.00 0.00 0.00 67 1026.7
20260505194548 59 360 2.0 5.0 0.00 0.00 0.00 67 1026.7
20260505194043 59 360 2.0 5.0 0.00 0.00 0.00 66 1026.7
20260505193542 60 360 2.0 5.0 0.00 0.00 0.00 66 1026.7
20260505193047 60 360 3.0 5.0 0.00 0.00 0.00 66 1026.7
20260505192545 60 360 2.0 5.0 0.00 0.00 0.00 65 1026.7
20260505192043 60 360 2.0 4.0 0.00 0.00 0.00 64 1026.7
20260505191551 60 360 2.0 4.0 0.00 0.00 0.00 65 1026.7
20260505191042 60 360 2.0 6.0 0.00 0.00 0.00 64 1026.7
20260505190543 60 360 2.0 6.0 0.00 0.00 0.00 64 1026.7
20260505190051 60 360 3.0 6.0 0.00 0.00 0.00 64 1026.6
20260505185543 60 360 3.0 6.0 0.00 0.00 0.00 63 1026.6
20260505185040 60 360 2.0 5.0 0.00 0.00 0.00 63 1026.6
20260505184551 60 360 2.0 5.0 0.00 0.00 0.00 62 1026.5
20260505184043 60 360 2.0 5.0 0.00 0.00 0.00 62 1026.5
20260505183540 60 360 2.0 5.0 0.00 0.00 0.00 61 1026.6
20260505183049 60 360 2.0 5.0 0.00 0.00 0.00 61 1026.4
20260505182546 60 360 2.0 5.0 0.00 0.00 0.00 60 1026.4
20260505182042 60 360 2.0 5.0 0.00 0.00 0.00 59 1026.5
20260505181550 60 360 2.0 5.0 0.00 0.00 0.00 59 1026.4
20260505181046 60 360 2.0 5.0 0.00 0.00 0.00 58 1026.5
20260505180548 60 360 2.0 5.0 0.00 0.00 0.00 58 1026.6
20260505180057 60 360 2.0 5.0 0.00 0.00 0.00 57 1026.6
20260505175543 60 360 3.0 5.0 0.00 0.00 0.00 57 1026.5
20260505175043 60 360 0.0 3.0 0.00 0.00 0.00 57 1026.6
20260505174548 60 0 0.0 3.0 0.00 0.00 0.00 55 1026.7
20260505174043 60 0 1.0 4.0 0.00 0.00 0.00 54 1026.7
20260505173542 60 360 2.0 4.0 0.00 0.00 0.00 54 1026.7
20260505173049 60 360 1.0 5.0 0.00 0.00 0.00 54 1026.6
20260505172539 60 360 2.0 5.0 0.00 0.00 0.00 54 1026.6
20260505172043 60 360 3.0 5.0 0.00 0.00 0.00 53 1026.5
20260505171549 60 360 2.0 4.0 0.00 0.00 0.00 53 1026.5
20260505171039 60 360 2.0 4.0 0.00 0.00 0.00 53 1026.4
20260505170541 60 360 2.0 4.0 0.00 0.00 0.00 53 1026.5
20260505170051 60 360 2.0 5.0 0.00 0.00 0.00 53 1026.5
20260505165545 60 360 2.0 5.0 0.00 0.00 0.00 53 1026.6
20260505165043 60 360 2.0 6.0 0.00 0.00 0.00 53 1026.6
20260505164553 59 360 3.0 6.0 0.00 0.00 0.00 54 1026.6
20260505164045 59 360 2.0 5.0 0.00 0.00 0.00 54 1026.6
20260505163545 59 360 2.0 5.0 0.00 0.00 0.00 54 1026.6
20260505163153 59 360 1.0 4.0 0.00 0.00 0.00 54 1026.4
20260505163049 59 360 1.0 4.0 0.00 0.00 0.00 54 1026.4
20260505162546 59 0 0.0 0.0 0.00 0.00 0.00 54 1026.4
20260505162043 59 0 0.0 0.0 0.00 0.00 0.00 54 1026.4
20260505161601 60 0 0.0 2.0 0.00 0.00 0.00 53 1026.4
20260505161043 60 0 0.0 4.0 0.00 0.00 0.00 53 1026.4
20260505160546 60 360 1.0 4.0 0.00 0.00 0.00 53 1026.3
20260505153053 61 360 0.0 2.0 0.00 0.00 0.00 52 1026.5
20260505152543 61 360 1.0 2.0 0.00 0.00 0.00 51 1026.6
20260505152042 61 360 1.0 2.0 0.00 0.00 0.00 51 1026.5
20260505151551 61 360 1.0 3.0 0.00 0.00 0.00 51 1026.4
20260505151043 61 360 1.0 3.0 0.00 0.00 0.00 51 1026.5
20260505150543 61 0 0.0 0.0 0.00 0.00 0.00 51 1026.5
20260505140542 63 360 2.0 8.0 0.00 0.00 0.00 47 1026.7
20260505140113 63 360 3.0 8.0 0.00 0.00 0.00 49 1026.7
20260505130103 63 360 3.0 6.0 0.00 0.00 0.00 53 1026.6
20260505124608 63 360 2.0 5.0 0.00 0.00 0.00 53 1026.6
20260505124041 63 360 3.0 6.0 0.00 0.00 0.00 53 1026.6